www.pogodaiklimat.ru

Погода и климат >> Архив погоды >> Австрия >> Бишофсхофен


ПОГОДА в Бишофсхофене

  • Прогноз погоды в Бишофсхофене
  • Монитор погоды в Бишофсхофене

АРХИВ ПОГОДЫ в Бишофсхофене

Время (UTC), дата Ветер
(напр.,м/с)
 
Видим.   Явления Облачность Т
(С)
Тd
(С)
f
(%)
Тe
(С)
Тes
(С)
Комфортность P
(гПа)
Po
(гПа)
Тmin
(С)
Tmax
(С)
R
(мм)
R24
(мм)
S
(см)
22 15.09 штиль 0 н/о н/о +13.9 +12.6 92 +13 +13 1023.9 960.0
23 15.09 штиль 0 н/о н/о +13.3 +12.2 93 +13 +13 1024.3 960.2
00 16.09 ЮВ 1 н/о н/о +12.9 +11.8 93 +13 +13 1024.3 960.1
01 16.09 штиль 0 н/о н/о +12.6 +11.5 93 +12 +12 1024.2 960.0
02 16.09 ЮВ 1 н/о н/о +12.1 +11.2 94 +12 +12 1024.1 959.7
03 16.09 штиль 0 н/о н/о +11.5 +10.6 94 +11 +11 1024.1 959.6
04 16.09 В 1 н/о н/о +11.4 +10.5 94 +11 +11 1023.8 959.3
05 16.09 Ю 1 5000 м 3/3 100 м
[Cu hum]
+11.2 +10.3 94 +11 +11 1023.7 959.2
06 16.09 штиль 0 н/о н/о +11.2 +10.3 94 +10 +10 1023.9 959.3 +11.0 +18.9
07 16.09 ЮВ 1 н/о н/о +12.0 +10.6 91 +12 +12 1023.4 959.1
08 16.09 ЮВ 1 н/о н/о +14.1 +10.7 80 +14 +14 1022.6 958.8
09 16.09 ЮВ 1 н/о н/о +17.2 +11.1 67 +18 +18 1021.3 958.2
10 16.09 ЮВ 1 н/о н/о +19.4 +11.9 62 +22 +22 комфорт 1019.9 957.4
11 16.09 СЗ 1 н/о н/о +22.9 +13.1 54 +26 +26 жарко 1018.2 956.5
12 16.09 штиль 0 н/о н/о +24.7 +12.4 46 +26 +26 жарко 1016.5 955.3
13 16.09 С 1 н/о н/о +26.6 +12.4 41 +28 +28 жарко 1015.2 954.4
14 16.09 С 4 н/о н/о +24.6 +13.6 50 +27 +27 жарко 1014.8 953.7
15 16.09 С 4 н/о н/о +24.7 +14.2 52 +27 +27 жарко 1014.7 953.6
16 16.09 СВ 2 н/о н/о +24.6 +14.4 53 +27 +27 жарко 1014.6 953.5
17 16.09 штиль 0 н/о н/о +21.9 +15.3 66 +25 +25 комфорт 1015.0 953.4
18 16.09 штиль 0 н/о н/о +19.8 +15.5 76 +22 +22 комфорт 1016.2 954.1 +11.1 +27.6
19 16.09 ЮВ 2 н/о н/о +18.9 +14.9 78 +21 +21 комфорт 1016.8 954.4
20 16.09 ЮВ 1 н/о н/о +17.6 +14.3 81 +19 +19 1017.5 954.8
21 16.09 штиль 0 н/о н/о +16.8 +14.5 86 +17 +17 1017.6 954.7
22 16.09 С 1 н/о н/о +16.6 +14.4 87 +17 +17 1017.8 954.9
23 16.09 С 2 н/о н/о +16.7 +14.3 86 +17 +17 1017.6 954.7
00 17.09 ЮВ 1 н/о н/о +16.2 +14.3 89 +17 +17 1017.5 954.5
01 17.09 ЮВ 1 н/о н/о +15.8 +14.2 90 +16 +16 1017.2 954.1
02 17.09 штиль 0 н/о н/о +15.2 +13.9 92 +15 +15 1017.0 953.8
03 17.09 Ю 1 н/о н/о +14.8 +13.8 94 +15 +15 1017.1 953.8
04 17.09 Ю 1 н/о н/о +14.7 +13.6 93 +15 +15 1017.3 954.0
05 17.09 ЮВ 2 10 км 9/9 1000 м
[Cu Sc]
+14.6 +13.3 92 +14 +14 1017.6 954.2
06 17.09 Ю 1 18 км 8/6 1000 м
[Cu Sc Ci fib]
+14.7 +13.0 90 +15 +15 1017.8 954.4 +14.3 +19.8
07 17.09 ЮВ 2 н/о н/о +15.1 +13.2 88 +15 +15 1017.9 954.6
08 17.09 ЮВ 2 н/о н/о +16.1 +13.2 83 +16 +16 1017.7 954.6
09 17.09 СВ 1 н/о н/о +16.7 +13.7 82 +18 +18 1017.2 954.3
10 17.09 С 3 н/о н/о +19.5 +12.4 64 +21 +21 комфорт 1016.1 953.8
11 17.09 С 2 н/о н/о +19.6 +12.6 64 +22 +22 комфорт 1015.5 953.3
12 17.09 С 5 30 км 6/6 1500 м
[Cu Sc]
+20.9 +11.8 56 +23 +25 комфорт 1014.6 952.7
13 17.09 С 6 н/о н/о +21.1 +12.1 56 +23 +23 комфорт 1014.2 952.4
14 17.09 С 4 н/о н/о +20.3 +12.6 61 +22 +22 комфорт 1014.2 952.2
15 17.09 С 5 н/о н/о +20.4 +12.2 59 +22 +22 комфорт 1014.1 952.1
16 17.09 С 5 н/о н/о +19.9 +12.1 61 +21 +21 комфорт 1014.5 952.4
17 17.09 С 4 н/о н/о +18.6 +12.0 65 +19 +19 1015.0 952.6
18 17.09 С 3 н/о н/о +17.7 +12.0 69 +18 +18 1015.8 953.2 +14.5 +21.2
19 17.09 С 2 н/о н/о +17.3 +12.1 71 +18 +18 1016.9 954.1
20 17.09 С 1 н/о н/о +16.3 +12.6 79 +17 +17 1017.8 954.8
21 17.09 С 4 н/о н/о +16.9 +11.6 71 +16 +16 1017.7 954.8
22 17.09 СВ 3 н/о н/о +16.2 +10.4 68 +16 +16 1018.4 955.3
23 17.09 С 5 н/о н/о +16.0 +8.5 61 +15 +15 1018.6 955.4
00 18.09 С 6 н/о н/о +15.4 +8.5 63 +14 +14 1019.2 955.8
01 18.09 С 5 н/о н/о +14.8 +7.5 62 +13 +13 1019.6 956.0
02 18.09 С 6 н/о н/о +14.1 +6.9 62 +12 +12 1020.2 956.4
03 18.09 С 5 н/о н/о +13.4 +5.3 58 +12 +12 1021.1 957.1
04 18.09 С 5 н/о н/о +13.0 +4.9 58 +11 +11 1021.8 957.7
05 18.09 СВ 4 н/о н/о +12.6 +5.4 61 +11 +11 1022.2 958.0
06 18.09 С 2 10 км 9/9 1000 м
[Sc]
+12.3 +5.7 64 +12 +12 1022.7 958.4 +12.1 +17.8
07 18.09 С 5 н/о н/о +12.0 +5.6 65 +10 +10 1023.2 958.8
08 18.09 СВ 4 н/о н/о +12.2 +5.8 65 +10 +10 1023.5 959.1
09 18.09 С 3 н/о н/о +13.9 +6.2 60 +13 +13 1023.0 959.0
10 18.09 С 3 н/о н/о +15.6 +7.1 57 +15 +15 1022.4 958.8
11 18.09 С 4 н/о н/о +16.2 +7.0 54 +16 +16 1021.8 958.4
12 18.09 С 5 30 км 5/5 1500 м
[Cu hum]
+16.6 +7.3 54 +16 +18 1021.0 957.7
13 18.09 С 6 н/о н/о +16.2 +6.7 53 +15 +15 1020.6 957.3
14 18.09 С 6 н/о н/о +16.6 +6.8 52 +16 +16 1020.1 956.9
15 18.09 С 6 н/о н/о +16.0 +6.6 54 +15 +15 1020.2 956.8
16 18.09 С 6 н/о н/о +15.3 +6.5 56 +14 +14 1020.5 957.0
17 18.09 С 5 н/о н/о +14.6 +6.2 57 +13 +13 1021.1 957.4
18 18.09 С 3 н/о н/о +14.0 +5.9 58 +13 +13 1022.1 958.2 +11.8 +17.1
19 18.09 СВ 1 н/о н/о +13.6 +5.7 59 +14 +14 1023.0 958.9
20 18.09 С 3 н/о н/о +13.4 +4.8 56 +12 +12 1023.3 959.2
21 18.09 СВ 2 н/о н/о +13.3 +3.8 53 +13 +13 1023.7 959.5
22 18.09 С 2 н/о н/о +12.8 +3.3 52 +12 +12 1023.9 959.6
23 18.09 С 3 н/о н/о +12.3 +2.5 51 +11 +11 1024.4 959.9
00 19.09 СВ 3 н/о н/о +11.9 +1.8 50 +11 +11 1024.6 960.0
01 19.09 СЗ 1 н/о н/о +11.6 +3.4 57 +12 +12 1024.5 959.9
02 19.09 С 1 н/о н/о +11.0 +4.8 66 +11 +11 1024.4 959.7
03 19.09 С 1 н/о н/о +10.7 +4.7 66 +11 +11 1024.6 959.8
04 19.09 С 1 н/о н/о +10.0 +5.1 72 +10 +10 1025.0 960.0
05 19.09 штиль 0 8000 м 10/10 600 м
[St]
+9.6 +4.9 72 +9 +9 1025.5 960.4
06 19.09 С 1 12 км 8/5 1000 м
[Cu hum Ci sp]
+9.4 +5.4 76 +9 +9 1026.1 960.9 +9.4 +14.0
07 19.09 С 1 н/о н/о +10.3 +5.0 70 +10 +10 1026.3 961.3
08 19.09 С 2 н/о н/о +11.5 +4.1 60 +11 +11 1026.2 961.5
09 19.09 С 3 н/о н/о +12.5 +3.7 55 +11 +11 1026.0 961.5
10 19.09 С 2 н/о н/о +14.4 +3.5 48 +14 +14 1025.2 961.1
11 19.09 С 3 н/о н/о +15.3 +2.5 42 +15 +15 1024.6 960.8
12 19.09 С 5 50 км 3/3 1500 м
[Cu hum]
+16.1 +3.5 43 +15 +19 1024.0 960.4
13 19.09 С 5 н/о н/о +16.4 +3.1 41 +16 +16 1023.7 960.2
14 19.09 С 6 н/о н/о +16.0 +3.6 44 +15 +15 1023.8 960.2
15 19.09 С 6 н/о н/о +15.5 +3.3 44 +14 +14 1024.1 960.3
16 19.09 С 4 н/о н/о +14.6 +3.4 47 +14 +14 1024.7 960.7
17 19.09 СВ 3 н/о н/о +13.3 +2.9 49 +12 +12 1025.5 961.2
18 19.09 СВ 1 н/о н/о +12.3 +3.0 53 +13 +13 1026.6 962.0 +9.4 +16.6
19 19.09 ЮВ 1 н/о н/о +10.4 +4.6 67 +10 +10 1027.7 962.6
20 19.09 штиль 0 н/о н/о +9.4 +4.7 72 +9 +9 1028.9 963.5
21 19.09 штиль 0 н/о н/о +8.0 +4.2 77 +7 +7 1029.8 964.1
22 19.09 СЗ 1 н/о н/о +7.5 +4.3 80 +7 +7 1030.0 964.1
23 19.09 штиль 0 н/о н/о +6.5 +4.0 84 +6 +6 1030.3 964.2
00 20.09 штиль 0 н/о н/о +6.1 +3.9 86 +5 +5 1030.4 964.2
01 20.09 штиль 0 н/о н/о +5.4 +3.4 87 +4 +4 1030.5 964.1
02 20.09 С 1 н/о н/о +4.7 +3.1 89 +3 +3 1030.6 964.0
03 20.09 штиль 0 н/о н/о +4.3 +2.8 90 +3 +3 1030.4 963.8
04 20.09 штиль 0 н/о н/о +4.1 +2.6 90 +3 +3 1030.5 963.8
05 20.09 штиль 0 8000 м 3/1 1500 м
[Cu hum Ci fib]
+3.9 +2.4 90 +3 +3 1030.8 964.0
06 20.09 штиль 0 н/о н/о +4.0 +2.6 91 +3 +3 1031.1 964.3 +3.7 +12.5
07 20.09 ЮВ 1 н/о н/о +5.2 +3.0 86 +4 +4 1030.9 964.4
08 20.09 ЮВ 1 н/о н/о +6.8 +3.4 79 +6 +6 1030.4 964.3
09 20.09 ЮВ 1 н/о н/о +9.6 +3.4 65 +9 +9 1028.9 963.6
10 20.09 СЗ 1 н/о н/о +12.5 +3.9 56 +13 +13 1027.2 962.6
11 20.09 С 2 н/о н/о +15.0 +4.1 48 +15 +15 1025.9 961.9
12 20.09 С 4 >70 км 3/1 1500 м
[Cu hum Ci fib]
+16.5 +1.4 36 +16 +21 1024.6 961.0
14 20.09 С 5 н/о н/о +17.3 +2.1 36 +17 +17 1023.6 960.2
15 20.09 С 6 н/о н/о +17.0 +2.7 38 +16 +16 1023.4 960.0
16 20.09 С 4 н/о н/о +15.8 +3.4 43 +15 +15 1023.9 960.2
17 20.09 С 4 н/о н/о +14.4 +2.8 46 +13 +13 1024.7 960.7
18 20.09 штиль 0 н/о н/о +11.6 +4.7 63 +11 +11 1026.2 961.5 +3.9 +17.6
19 20.09 штиль 0 н/о н/о +9.7 +5.5 75 +9 +9 1027.5 962.3
20 20.09 Ю 1 н/о н/о +9.2 +5.4 77 +9 +9 1027.6 962.3
21 20.09 ЮВ 1 н/о н/о +8.2 +5.3 82 +7 +7 1028.0 962.4
22 20.09 штиль 0 н/о н/о +7.2 +4.8 85 +6 +6 1028.2 962.4
23 20.09 штиль 0 н/о н/о +6.6 +4.6 87 +6 +6 1028.0 962.1
00 21.09 ЮВ 1 н/о н/о +6.2 +4.5 89 +5 +5 1028.0 962.0
01 21.09 штиль 0 н/о н/о +5.6 +3.9 89 +5 +5 1028.2 962.0
02 21.09 Ю 1 н/о н/о +5.4 +4.0 91 +4 +4 1027.8 961.6
03 21.09 Ю 1 н/о н/о +5.1 +3.8 91 +4 +4 1027.6 961.3
04 21.09 ЮВ 1 н/о н/о +4.5 +3.3 92 +3 +3 1027.4 961.0
05 21.09 ЮВ 2 10 км 3/0
[Ci fib]
+4.3 +3.1 92 +1 +1 1027.4 961.0
06 21.09 ЮВ 1 н/о н/о +4.3 +3.1 92 +3 +3 1027.6 961.1 +4.2 +11.9
07 21.09 ЮВ 2 н/о н/о +4.8 +3.3 90 +2 +2 1027.2 960.9
08 21.09 ЮВ 2 н/о н/о +7.7 +3.8 76 +6 +6 1025.9 960.3
09 21.09 штиль 0 н/о н/о +11.6 +4.9 63 +11 +11 1024.1 959.5
10 21.09 штиль 0 н/о н/о +13.7 +3.7 51 +14 +14 1022.5 958.5
11 21.09 СЗ 1 н/о н/о +17.0 +3.9 42 +18 +18 1020.5 957.3
12 21.09 ЮВ 1 >70 км ясно +19.3 +5.1 39 +21 +32 комфорт 1018.9 956.3
13 21.09 С 2 н/о н/о +21.3 +6.9 39 +22 +22 комфорт 1017.4 955.3
14 21.09 С 3 н/о н/о +22.0 +7.3 39 +23 +23 комфорт 1016.3 954.4
15 21.09 СЗ 3 н/о н/о +21.6 +7.8 41 +23 +23 комфорт 1015.9 954.0
16 21.09 С 3 н/о н/о +19.6 +8.7 49 +21 +21 комфорт 1016.1 953.8
17 21.09 СЗ 1 н/о н/о +16.0 +10.2 68 +17 +17 1017.1 954.0
18 21.09 штиль 0 н/о н/о +14.1 +10.1 77 +14 +14 1018.0 954.4 +4.2 +22.3
19 21.09 ЮВ 1 н/о н/о +12.6 +9.6 82 +13 +13 1018.7 954.8
20 21.09 ЮВ 1 н/о н/о +11.4 +9.2 86 +11 +11 1019.3 955.1
21 21.09 ЮВ 2 н/о н/о +10.5 +8.7 89 +9 +9 1019.6 955.1
22 21.09 ЮВ 2 н/о н/о +10.2 +8.5 89 +9 +9 1019.4 954.9
23 21.09 ЮВ 2 н/о н/о +9.6 +8.0 90 +8 +8 1019.1 954.5
00 22.09 ЮВ 2 н/о н/о +9.0 +7.7 92 +7 +7 1019.1 954.3
01 22.09 ЮВ 1 н/о н/о +8.5 +7.3 92 +8 +8 1018.9 954.0
02 22.09 ЮВ 1 н/о н/о +8.0 +7.0 93 +7 +7 1018.6 953.6
03 22.09 ЮВ 2 н/о н/о +7.7 +6.6 93 +6 +6 1018.2 953.2
04 22.09 ЮВ 1 н/о н/о +7.2 +6.2 93 +6 +6 1018.1 953.0
05 22.09 штиль 0 12 км 4/0
[Ci sp]
+6.6 +5.6 93 +6 +6 1018.3 953.0
06 22.09 штиль 0 н/о н/о +7.0 +6.0 93 +6 +6 1018.4 953.2 +6.4 +14.2
07 22.09 ЮВ 2 н/о н/о +7.7 +6.4 91 +6 +6 1017.9 952.9
08 22.09 ЮВ 2 н/о н/о +10.0 +6.4 78 +9 +9 1016.9 952.5
09 22.09 ЮВ 2 н/о н/о +11.6 +7.0 73 +11 +11 1016.0 952.0
10 22.09 ЮВ 1 н/о н/о +13.4 +7.4 67 +14 +14 1014.9 951.3
11 22.09 З 1 н/о н/о +15.1 +7.8 62 +16 +16 1013.6 950.5
12 22.09 ЮВ 1 30 км 9/1 2000 м
[Sc Ac lent Ci sp]
+17.0 +8.2 56 +18 +23 1011.9 949.3
13 22.09 ЮВ 2 н/о н/о +17.8 +8.6 55 +18 +18 1011.2 948.8
14 22.09 штиль 0 н/о н/о +19.3 +9.2 52 +20 +20 1010.5 948.5
15 22.09 С 2 н/о н/о +19.8 +10.3 54 +22 +22 комфорт 1010.1 948.2
16 22.09 З 1 н/о н/о +18.0 +10.8 63 +19 +19 1010.5 948.2
17 22.09 штиль 0 н/о н/о +15.5 +11.7 78 +15 +15 1011.3 948.5
18 22.09 ЮВ 2 н/о н/о +14.2 +11.1 82 +14 +14 1012.3 949.1 +6.9 +20.1
19 22.09 Ю 1 н/о н/о +13.2 +10.8 85 +13 +13 1013.0 949.6
20 22.09 штиль 0 н/о н/о +12.6 +10.5 87 +12 +12 1013.3 949.7
21 22.09 ЮВ 1 н/о н/о +11.7 +10.1 90 +11 +11 1013.5 949.7

 

Местоположение метеостанции Бишофсхофен (Австрия): широта 47.40 долгота 13.22 высота над уровнем моря 548 м.

В архиве по умолчанию представлена погода в Бишофсхофене за последнюю неделю. Архивные данные за месяц целиком и за предыдущие месяцы, начиная с января 2011 года, Вы можете получить, выбрав интересующий диапазон дат из раскрывающегося списка и нажав кнопку "Ввод!".


*Определитесь, кто Вы:
робот инопланетянин человек

Внимание! Время в таблицах - всемирное. Для получения местного времени необходимо прибавить поправку, которая равна 1 ч.

Смотрите также архив погоды в соседних городах и на ближайших метеорологических станциях:

Погода в Санкт-Иоганн-ин-Тироль (Австрия) (9 км)
Погода в Санкт-Файт-им-Понгау (Австрия) (9 км)
Погода в Радштадте (Австрия) (17 км)
Погода в Радштадте (Австрия) (17 км)
Погода в Мария-Альм (Австрия) (24 км)
Погода в Раурисе (Австрия) (26 км)
Погода в Рамзау (Австрия) (31 км)
Погода в Обертауерн (Австрия) (31 км)
Погода в Целль-ам-Зе (Австрия) (33 км)
Погода на Шмиттенхёэ (Австрия) (38 км)

Пояснения к столбцам:

Ветер - указаны скорость ветра в м/с - средняя за 10 мин, порывы в срок и между сроками (в фигурных скобках) и направление, откуда дует ветер: С - северный, СВ - северо-восточный, В - восточный, ЮВ - юго-восточный, Ю - южный, ЮЗ - юго-западный, З - западный, СЗ - северо-западный.
Видимость - горизонтальная дальность видимости в метрах или километрах. При видимости от 1 до 10 км при отсутствии осадков обычно наблюдается дымка, при ухудшении видимости до 1 км и менее - туман. В сухую погоду видимость может ухудшаться дымом, пылью или мглою.
Явления - указаны атмосферные явления, наблюдавшиеся в срок или в последний час перед сроком; фигурными скобками обозначены явления, наблюдавшиеся между сроками (за 1-3 часа до срока); квадратными скобками обозначены град или гололедные отложения с указанием их диаметра в мм.
Облачность - указаны через наклонную черту общая и нижняя облачность в баллах и высота нижней границы облаков в метрах; квадратными скобками обозначены формы облаков: Ci - перистые, Cs - перисто-слоистые, Cc - перисто-кучевые, Ac - высококучевые, As - высокослоистые, Sc - слоисто-кучевые, Ns - слоисто-дождевые, Cu - кучевые, Cb - кучево-дождевые. Подробнее классификацию облаков см. в Атласе облаков (PDF).
T - Температура воздуха - температура, измеренная на высоте 2 м над землей.
Td - Температура точки росы - температура, при понижении до которой содержащийся в воздухе водяной пар достигнет насыщения.
f - Относительная влажность воздуха - влажноcть воздуха, измеренная на высоте 2 м над землей.
Te - Эффективная температура - температура, которую ощущает одетый по сезону человек в тени. Характеристика душности погоды. При расчете учитывается влияние влажности воздуха и скорости ветра на теплоощущения человека.
Tes - Эффективная температура на солнце - температура, которую ощущает человек, с поправкой на солнечный нагрев. Характеристика знойности погоды. Зависит от высоты солнца над горизонтом, облачности и скорости ветра. Ночью, в пасмурную погоду, а также при ветре 12 м/с и более поправка равна нулю.
P - Атмосферное давление - приведенное к уровню моря атмосферное давление.
Po - Атмосферное давление - измеренное на уровне метеостанции атмосферное давление.
Tmin - Минимальная температура - минимум температуры воздуха на высоте 2 м над землей.
Tmax - Максимальная температура - максимум температуры воздуха на высоте 2 м над землей.
R - Количество осадков - Количество выпавших осадков за период времени, мм. При наведении курсора мыши на число - период времени, за который выпало указанное количество осадков.
R24 - Количество осадков - Количество выпавших осадков за 24 часа, мм.
S - Снежный покров - Высота снежного покрова, см. При наведении курсора мыши на число - состояние снежного покрова и степень покрытия местности в баллах.